K0EG-WX Weather Reports


time (UTC)temp
C
wind
direction
speed
KPH
gust
KPH
rain 1hr
cm
rain 24hr
cm
rain mn
cm
humidity
%
barometer
mb
20260906154516 32 18 1.6 6.4 0.00 0.00 0.00 53 1018.4
20260906153521 32 351 3.2 6.4 0.00 0.00 0.00 55 1018.3
20260906152516 31 86 1.6 8.0 0.00 0.00 0.00 56 1018.2
20260906151516 31 2 1.6 8.0 0.00 0.00 0.00 57 1018.0
20260906150516 31 44 1.6 4.8 0.00 0.00 0.00 59 1017.9
20260906145516 30 339 1.6 8.0 0.00 0.00 0.00 62 1017.8
20260906144516 28 43 1.6 6.4 0.00 0.00 0.00 64 1017.8
20260906143516 28 353 3.2 6.4 0.00 0.00 0.00 65 1017.9
20260906142516 28 354 1.6 6.4 0.00 0.00 0.00 68 1017.6
20260906141516 27 347 3.2 6.4 0.00 0.00 0.00 70 1017.6
20260906140516 26 353 1.6 4.8 0.00 0.00 0.00 73 1017.4
20260906135516 25 343 1.6 4.8 0.00 0.00 0.00 77 1017.5
20260906134516 24 349 0.0 4.8 0.00 0.00 0.00 80 1017.5
20260906133516 23 37 0.0 6.4 0.00 0.00 0.00 82 1017.6
20260906132516 23 348 1.6 6.4 0.00 0.00 0.00 83 1017.6
20260906131516 23 341 0.0 6.4 0.00 0.00 0.00 84 1017.6
20260906130536 22 14 0.0 3.2 0.00 0.00 0.00 84 1017.6
20260906125516 22 26 0.0 3.2 0.00 0.00 0.00 85 1017.7
20260906124516 22 21 1.6 4.8 0.00 0.00 0.00 85 1017.6
20260906123516 22 351 1.6 4.8 0.00 0.00 0.00 85 1017.5
20260906122516 22 7 0.0 3.2 0.00 0.00 0.00 85 1017.3
20260906121516 22 49 0.0 1.6 0.00 0.00 0.00 85 1017.2
20260906120516 22 46 0.0 1.6 0.00 0.00 0.00 85 1017.0
20260906115536 23 40 1.6 4.8 0.00 0.00 0.00 85 1016.9
20260906114516 23 276 0.0 1.6 0.00 0.00 0.00 84 1016.7
20260906113516 23 0.0 0.0 0.00 0.00 0.00 84 1016.7
20260906112516 23 0.0 0.0 0.00 0.00 0.00 84 1016.6
20260906111516 23 0.0 0.0 0.00 0.00 0.00 83 1016.5
20260906110516 23 0.0 0.0 0.00 0.00 0.00 84 1016.7
20260906105516 23 0.0 3.2 0.00 0.00 0.00 84 1016.6
20260906104516 23 358 0.0 3.2 0.00 0.00 0.00 84 1016.5
20260906103536 23 9 0.0 1.6 0.00 0.00 0.00 83 1016.4
20260906102556 24 354 1.6 4.8 0.00 0.00 0.00 83 1016.3
20260906101516 24 44 0.0 6.4 0.00 0.00 0.00 83 1016.2
20260906100516 24 8 0.0 3.2 0.00 0.00 0.00 83 1016.1
20260906095516 24 16 0.0 1.6 0.00 0.00 0.00 83 1016.1
20260906094515 25 10 0.0 4.8 0.00 0.00 0.00 83 1016.0
20260906093515 25 344 0.0 3.2 0.00 0.00 0.00 83 1016.0
20260906092515 25 5 1.6 6.4 0.00 0.00 0.00 83 1016.1
20260906091536 25 357 1.6 8.0 0.00 0.00 0.00 83 1016.0
20260906090516 25 355 1.6 3.2 0.00 0.00 0.00 83 1015.9
20260906085515 25 21 1.6 4.8 0.00 0.00 0.00 83 1015.8
20260906084515 25 343 1.6 6.4 0.00 0.00 0.00 83 1015.7
20260906083515 25 353 1.6 4.8 0.00 0.00 0.00 83 1015.4
20260906082515 25 3 0.0 4.8 0.00 0.00 0.00 83 1015.4
20260906081516 25 326 0.0 4.8 0.00 0.00 0.00 83 1015.4
20260906080534 26 22 0.0 4.8 0.00 0.00 0.00 82 1015.4
20260906075515 26 2 1.6 3.2 0.00 0.00 0.00 81 1015.4
20260906074515 26 3 0.0 1.6 0.00 0.00 0.00 81 1015.5
20260906073515 26 348 0.0 1.6 0.00 0.00 0.00 81 1015.6
20260906072515 26 338 0.0 1.6 0.00 0.00 0.00 80 1015.7
20260906071515 26 307 0.0 1.6 0.00 0.00 0.00 79 1015.5
20260906070515 26 0.0 1.6 0.00 0.00 0.00 78 1015.4
20260906065515 26 0.0 0.0 0.00 0.00 0.00 78 1015.4
20260906064514 26 315 0.0 1.6 0.00 0.00 0.00 78 1015.4
20260906063515 26 0.0 0.0 0.00 0.00 0.00 77 1015.7
20260906062516 26 0.0 1.6 0.00 0.00 0.00 76 1015.7
20260906061516 26 0.0 0.0 0.00 0.00 0.00 76 1015.5
20260906060515 26 0.0 0.0 0.00 0.00 0.00 75 1015.5
20260906055515 26 0.0 1.6 0.00 0.00 0.00 75 1015.5
20260906054515 26 0.0 0.0 0.00 0.00 0.00 75 1015.5
20260906053515 26 0.0 0.0 0.00 0.00 0.00 74 1015.5
20260906052514 27 0.0 0.0 0.00 0.00 0.00 73 1015.6
20260906051515 27 0.0 0.0 0.00 0.00 0.00 72 1015.4
20260906050515 27 0.0 1.6 0.00 0.00 0.00 72 1015.4
20260906045515 27 0.0 0.0 0.00 0.00 0.00 71 1015.4
20260906044515 27 0.0 0.0 0.00 0.00 0.00 71 1015.3
20260906043515 27 0.0 0.0 0.00 0.00 0.00 71 1015.2
20260906042515 27 322 0.0 1.6 0.00 0.00 0.00 71 1015.2
20260906041515 27 0.0 0.0 0.00 0.00 0.00 71 1015.2
20260906040515 27 0.0 0.0 0.00 0.00 0.00 70 1015.0
20260906035515 27 337 0.0 1.6 0.00 0.00 0.00 70 1015.0
20260906034535 27 0.0 0.0 0.00 0.00 0.00 70 1015.0
20260906033535 27 0.0 0.0 0.00 0.00 0.00 69 1015.0
20260906032515 27 0.0 0.0 0.00 0.00 0.00 69 1015.0
20260906031515 27 0.0 0.0 0.00 0.00 0.00 69 1014.9
20260906030515 28 0.0 0.0 0.00 0.00 0.00 68 1014.8
20260906025515 28 0.0 1.6 0.00 0.00 0.00 67 1014.7
20260906024515 28 0.0 1.6 0.00 0.00 0.00 67 1014.7
20260906023535 28 337 0.0 1.6 0.00 0.00 0.00 66 1014.5
20260906022515 29 337 0.0 3.2 0.00 0.00 0.00 65 1014.3
20260906021540 29 337 0.0 1.6 0.00 0.00 0.00 65 1014.2
20260906020515 29 0.0 0.0 0.00 0.00 0.00 65 1014.1
20260906015515 30 337 0.0 1.6 0.00 0.00 0.00 64 1014.0
20260906014515 30 0.0 0.0 0.00 0.00 0.00 63 1013.9
20260906013535 30 337 0.0 1.6 0.00 0.00 0.00 62 1013.8
20260906012515 30 337 0.0 1.6 0.00 0.00 0.00 61 1013.6
20260906011515 31 0.0 0.0 0.00 0.00 0.00 60 1013.6
20260906010515 31 337 0.0 1.6 0.00 0.00 0.00 58 1013.5
20260906005515 32 337 0.0 3.2 0.00 0.00 0.00 57 1013.5
20260906004535 32 337 0.0 1.6 0.00 0.00 0.00 56 1013.4
20260906003535 33 337 0.0 1.6 0.00 0.00 0.00 54 1013.3
20260906002515 33 337 0.0 1.6 0.00 0.00 0.00 53 1013.4
20260906001520 34 0.0 1.6 0.00 0.00 0.00 51 1013.5
20260906000515 35 0.0 1.6 0.00 0.00 0.00 50 1013.4
20260905235515 35 340 1.6 4.8 0.00 0.00 0.00 48 1013.5
20260905234515 35 348 1.6 6.4 0.00 0.00 0.00 46 1013.5
20260905233515 36 346 0.0 3.2 0.00 0.00 0.00 46 1013.5
20260905232515 36 347 1.6 3.2 0.00 0.00 0.00 44 1013.5
20260905231515 36 345 1.6 6.4 0.00 0.00 0.00 43 1013.6
20260905230515 37 348 3.2 8.0 0.00 0.00 0.00 42 1013.6
20260905225535 37 350 3.2 8.0 0.00 0.00 0.00 43 1013.5
20260905224515 37 342 0.0 3.2 0.00 0.00 0.00 43 1013.4
20260905223515 38 264 0.0 3.2 0.00 0.00 0.00 42 1013.2
20260905222515 38 338 0.0 1.6 0.00 0.00 0.00 40 1013.2
20260905221515 39 348 0.0 3.2 0.00 0.00 0.00 38 1013.1
20260905220515 40 25 0.0 3.2 0.00 0.00 0.00 38 1013.2
20260905215514 40 344 0.0 4.8 0.00 0.00 0.00 38 1013.4
20260905214515 39 354 1.6 4.8 0.00 0.00 0.00 39 1013.4
20260905213514 39 31 1.6 3.2 0.00 0.00 0.00 39 1013.4
20260905212515 39 1 0.0 4.8 0.00 0.00 0.00 39 1013.3
20260905211515 40 337 1.6 9.7 0.00 0.00 0.00 38 1013.3
20260905210514 40 55 1.6 3.2 0.00 0.00 0.00 38 1013.5
20260905205515 40 62 1.6 4.8 0.00 0.00 0.00 39 1013.7
20260905204514 39 44 1.6 6.4 0.00 0.00 0.00 37 1013.7
20260905203514 38 151 3.2 6.4 0.00 0.00 0.00 38 1013.6
20260905202514 38 199 1.6 3.2 0.00 0.00 0.00 41 1013.7
20260905201515 37 165 0.0 3.2 0.00 0.00 0.00 41 1014.0
20260905200515 37 144 0.0 4.8 0.00 0.00 0.00 41 1014.1
20260905195600 37 88 0.0 3.2 0.00 0.00 0.00 40 1014.2
20260905194514 38 19 1.6 8.0 0.00 0.00 0.00 39 1014.2
20260905193514 38 62 0.0 3.2 0.00 0.00 0.00 36 1014.3
20260905192557 39 155 0.0 6.4 0.00 0.00 0.00 36 1014.4
20260905191517 38 123 1.6 6.4 0.00 0.00 0.00 38 1014.4
20260905190557 39 230 0.0 4.8 0.00 0.00 0.00 36 1014.4
20260905185517 41 212 0.0 4.8 0.00 0.00 0.00 32 1014.5
20260905184517 43 146 3.2 11.3 0.00 0.00 0.00 30 1014.5
20260905183517 43 12 1.6 6.4 0.00 0.00 0.00 31 1014.6
20260905182517 42 9 1.6 4.8 0.00 0.00 0.00 31 1014.6
20260905181517 42 198 1.6 6.4 0.00 0.00 0.00 30 1014.8
20260905180517 42 57 1.6 6.4 0.00 0.00 0.00 30 1014.9
20260905175517 42 94 1.6 4.8 0.00 0.00 0.00 35 1014.9
20260905174517 42 19 0.0 3.2 0.00 0.00 0.00 32 1015.0
20260905173517 43 3 1.6 9.7 0.00 0.00 0.00 31 1015.1
20260905172517 43 139 1.6 4.8 0.00 0.00 0.00 31 1015.2
20260905171517 42 28 1.6 3.2 0.00 0.00 0.00 33 1015.3
20260905170517 41 45 1.6 4.8 0.00 0.00 0.00 34 1015.4
20260905165537 41 36 1.6 6.4 0.00 0.00 0.00 34 1015.6
20260905164537 41 148 0.0 6.4 0.00 0.00 0.00 37 1015.6
20260905163517 41 211 1.6 4.8 0.00 0.00 0.00 37 1015.7
20260905162517 40 70 0.0 6.4 0.00 0.00 0.00 40 1015.8
20260905161517 40 351 1.6 3.2 0.00 0.00 0.00 39 1015.9
20260905160537 39 134 1.6 3.2 0.00 0.00 0.00 40 1015.9
20260905155537 38 173 0.0 4.8 0.00 0.00 0.00 44 1015.9